McConnell AFB, KS

7:37 AM CDT on July 17, 2019 (GMT -0500)
McConnell Air Force Base

Weather History for KIAB - May, 2019

Change the Weather History Date:

Thursday, May 9, 2019

  Actual Average Record
Temperature  
Mean Temperature 48 °F -  
Max Temperature 52 °F 73 °F 98 °F (2011)
Min Temperature 42 °F 53 °F 42 °F (2019)
Degree Days  
Heating Degree Days 18    
Moisture  
Dew Point 40 °F    
Average Humidity 76    
Maximum Humidity 88    
Minimum Humidity 65    
Precipitation  
Precipitation 0.00 in - - ()
Sea Level Pressure  
Sea Level Pressure 30.01 in    
Wind  
Wind Speed 16 mph (North)    
Max Wind Speed 23 mph    
Max Gust Speed 30 mph    
Visibility 10 miles    
Events Rain    
Averages and records for this station are not official NWS values.
T = Trace of Precipitation, MM = Missing Value Source: NWS Daily Summary

Daily Weather History Graph

Daily Weather History Graph

Search for Another Location

Airport or City:

Astronomy

May. 09, 2019 Rise Set
Actual Time 6:25 AM CDT 8:26 PM CDT
Civil Twilight 5:56 AM CDT 8:55 PM CDT
Nautical Twilight 5:21 AM CDT 9:30 PM CDT
Astronomical Twilight 4:43 AM CDT 10:08 PM CDT
Moon 10:23 AM CDT (5/9) 12:25 AM CDT (5/9)
Length of Visible Light 14h 58m
Length of Day
14h 01m
Waxing Crescent, 25% of the Moon is Illuminated
May 9
Waxing Crescent
May 11
First Quarter
May 18
Full
May 26
Last Quarter
Jun 3
New

Hourly Weather History & Observations

Time (CDT) Temp. Windchill Dew Point Humidity Pressure Visibility Wind Dir Wind Speed Gust Speed Precip Events Conditions
12:37 AM 53.6 °F - 50.0 °F 88% 29.83 in 10.0 mi North 23.0 mph 26.5 mph N/A   Overcast
12:40 AM 53.6 °F - 50.0 °F 88% 29.83 in 10.0 mi North 16.1 mph 26.5 mph N/A   Overcast
12:41 AM 53.6 °F - 50.0 °F 88% 29.83 in 10.0 mi North 16.1 mph 26.5 mph N/A   Overcast
12:42 AM 53.6 °F - 48.2 °F 82% 29.83 in 10.0 mi North 17.3 mph 26.5 mph N/A   Overcast
12:50 AM 53.6 °F - 48.2 °F 82% 29.83 in 10.0 mi North 12.7 mph - N/A   Overcast
12:56 AM 52.5 °F - 48.4 °F 86% 29.84 in 10.0 mi North 17.3 mph 23.0 mph N/A   Overcast
1:06 AM 51.8 °F - 48.2 °F 88% 29.84 in 10.0 mi NNW 18.4 mph - N/A   Overcast
1:36 AM 51.8 °F - 46.4 °F 82% 29.86 in 10.0 mi NNW 16.1 mph 24.2 mph N/A   Overcast
1:56 AM 51.4 °F - 45.5 °F 80% 29.86 in 10.0 mi North 15.0 mph - N/A   Overcast
2:56 AM 50.0 °F - 43.3 °F 78% 29.86 in 10.0 mi North 20.7 mph 28.8 mph N/A   Overcast
3:56 AM 47.5 °F - 39.9 °F 75% 29.88 in 10.0 mi North 19.6 mph 28.8 mph N/A   Overcast
4:05 AM 48.2 °F - 39.2 °F 71% 29.88 in 10.0 mi North 16.1 mph 29.9 mph N/A   Overcast
4:54 AM 46.4 °F 39.0 °F 37.4 °F 71% 29.93 in 10.0 mi North 19.6 mph 24.2 mph N/A   Overcast
4:56 AM 46.4 °F 39.0 °F 37.6 °F 71% 29.93 in 10.0 mi North 19.6 mph 24.2 mph N/A   Overcast
5:19 AM 46.4 °F 39.8 °F 39.2 °F 76% 29.94 in 10.0 mi North 16.1 mph 20.7 mph N/A   Overcast
5:41 AM 44.6 °F 37.4 °F 37.4 °F 76% 29.94 in 10.0 mi North 16.1 mph - N/A   Overcast
5:56 AM 45.0 °F 36.4 °F 36.9 °F 73% 29.93 in 10.0 mi North 23.0 mph 27.6 mph N/A   Overcast
6:56 AM 43.7 °F 35.4 °F 36.7 °F 76% 29.95 in 10.0 mi North 19.6 mph 23.0 mph N/A   Overcast
7:56 AM 43.7 °F 36.6 °F 37.0 °F 77% 29.98 in 10.0 mi North 15.0 mph 20.7 mph N/A   Overcast
8:56 AM 43.2 °F 35.6 °F 35.4 °F 74% 30.01 in 10.0 mi North 16.1 mph 21.9 mph N/A   Overcast
9:56 AM 43.5 °F 36.4 °F 35.8 °F 74% 30.01 in 10.0 mi North 15.0 mph 25.3 mph N/A   Overcast
10:21 AM 42.8 °F 34.5 °F 35.6 °F 76% 30.02 in 10.0 mi North 18.4 mph 21.9 mph N/A   Overcast
10:44 AM 42.8 °F 34.5 °F 35.6 °F 76% 30.02 in 10.0 mi North 18.4 mph 24.2 mph N/A   Overcast
10:56 AM 43.7 °F 37.7 °F 35.6 °F 73% 30.04 in 10.0 mi North 11.5 mph - N/A   Overcast
11:43 AM 44.6 °F 38.4 °F 35.6 °F 71% 30.06 in 10.0 mi North 12.7 mph - N/A Rain Light Rain
11:48 AM 44.6 °F 38.4 °F 37.4 °F 76% 30.06 in 10.0 mi North 12.7 mph - N/A Rain Light Rain
11:56 AM 43.9 °F 37.2 °F 37.4 °F 78% 30.06 in 10.0 mi North 13.8 mph 20.7 mph 0.00 in Rain Rain
1:23 PM 44.6 °F 39.7 °F 39.2 °F 81% 30.10 in 10.0 mi North 9.2 mph - N/A Rain Light Rain
1:41 PM 44.6 °F 39.2 °F 39.2 °F 81% 30.10 in 10.0 mi North 10.4 mph 18.4 mph N/A Rain Light Rain
1:43 PM 44.6 °F 39.2 °F 39.2 °F 81% 30.10 in 10.0 mi North 10.4 mph 18.4 mph N/A Rain Light Rain
1:48 PM 44.6 °F 39.7 °F 39.2 °F 81% 30.10 in 10.0 mi North 9.2 mph - N/A Rain Light Rain
1:51 PM 44.6 °F 38.4 °F 39.2 °F 81% 30.10 in 10.0 mi North 12.7 mph - N/A   Overcast
1:56 PM 44.6 °F 38.8 °F 38.1 °F 78% 30.10 in 10.0 mi North 11.5 mph - 0.00 in   Overcast
1:59 PM 44.6 °F 38.4 °F 39.2 °F 81% 30.10 in 10.0 mi North 12.7 mph - N/A Rain Light Rain
2:13 PM 46.4 °F 41.9 °F 39.2 °F 76% 30.10 in 10.0 mi North 9.2 mph - N/A   Overcast
2:22 PM 46.4 °F 40.7 °F 39.2 °F 76% 30.10 in 10.0 mi North 12.7 mph - N/A   Light Drizzle
2:28 PM 46.4 °F 41.1 °F 39.2 °F 76% 30.10 in 10.0 mi North 11.5 mph - N/A   Overcast
2:56 PM 47.5 °F - 39.2 °F 73% 30.09 in 10.0 mi North 13.8 mph 21.9 mph 0.00 in   Overcast
4:56 PM 48.0 °F - 38.7 °F 70% 30.10 in 10.0 mi NNW 12.7 mph - N/A   Overcast
5:11 PM 48.2 °F - 39.2 °F 71% 30.10 in 10.0 mi North 10.4 mph - N/A   Overcast
5:12 PM 48.2 °F - 39.2 °F 71% 30.10 in 10.0 mi North 11.5 mph - N/A   Overcast
5:35 PM 50.0 °F - 39.2 °F 66% 30.09 in 10.0 mi North 11.5 mph - N/A   Mostly Cloudy
5:46 PM 50.0 °F - 39.2 °F 66% 30.08 in 10.0 mi North 13.8 mph - N/A   Mostly Cloudy
5:56 PM 50.0 °F - 38.7 °F 65% 30.09 in 10.0 mi NNW 13.8 mph 18.4 mph N/A   Overcast
6:56 PM 49.8 °F - 39.7 °F 68% 30.08 in 10.0 mi North 13.8 mph - N/A   Overcast
7:56 PM 49.3 °F - 39.9 °F 70% 30.10 in 10.0 mi North 9.2 mph - N/A   Overcast
8:56 PM 48.9 °F - 40.6 °F 73% 30.12 in 10.0 mi NNW 5.8 mph - N/A   Overcast
9:56 PM 48.6 °F - 41.0 °F 75% 30.15 in 10.0 mi North 3.5 mph - N/A   Overcast
10:56 PM 48.4 °F - 41.2 °F 76% 30.17 in 10.0 mi Calm Calm - N/A   Overcast
11:56 PM 48.0 °F - 42.4 °F 81% 30.19 in 10.0 mi WSW 3.5 mph - N/A   Overcast